Regional Weather Roundup
Issued by NWS

Home | Current Version | Previous Version | Graphics & Text | Print | Product List | Glossary On
Versions: 1 2 3 4 5 6 7 8 9 10 11 12 13 14 15 16 17 18 19 20 21 22 23 24 25 26 27 28 29 30 31 32 33 34 35 36 37 38 39 40 41 42 43 44 45 46 47 48 49 50
000
ASUS43 KOAX 281502
RWRNE

WEATHER ROUNDUP FOR NEBRASKA
NATIONAL WEATHER SERVICE OMAHA NE
1000 AM CDT SAT MAY 28 2016

NOTES: SATELLITE DATA IS BEING USED TO AUGMENT CLOUD COVER ABOVE
       12000 FEET.
       "FAIR" INDICATES FEW OR NO CLOUDS BELOW 12,000 FEET WITH NO
       SIGNIFICANT WEATHER AND/OR OBSTRUCTIONS TO VISIBILITY.

  * THESE STATIONS DO NOT REPORT WEATHER SUCH AS RAIN...SNOW OR FOG.

NEZ001>004-019>022-054>056-281600-
NEBRASKA PANHANDLE

CITY           SKY/WX    TMP DP  RH WIND       PRES   REMARKS
SCOTTSBLUFF    SUNNY     58  45  62 W8        29.97R
ALLIANCE       SUNNY     58  48  69 NW5       29.94R
CHADRON        SUNNY     60  49  66 SW5       29.92S
SIDNEY         SUNNY     58  45  62 W5        29.98R
$$

NEZ057>060-069>072-079>082-281600-
SOUTHWEST NEBRASKA

CITY           SKY/WX    TMP DP  RH WIND       PRES   REMARKS
NORTH PLATTE   SUNNY     63  54  72 W7        29.91R
IMPERIAL       SUNNY     61  51  70 W5        29.95R
LEXINGTON      SUNNY     63  56  78 NW12      29.89R
MCCOOK         SUNNY     63  54  72 W9        29.93R
$$

NEZ005>010-023>029-035>040-094-281600-
NORTH CENTRAL NEBRASKA

CITY           SKY/WX    TMP DP  RH WIND       PRES   REMARKS
VALENTINE      CLOUDY    60  51  72 NW8       29.88R
AINSWORTH      CLOUDY    58  53  84 NW9       29.87S
BROKEN BOW     CLOUDY    60  55  83 NW13      29.86R
ORD            CLOUDY    61  56  83 NW12      29.82R
$$

NEZ041-046>049-061>064-073>077-083>087-281600-
SOUTH CENTRAL NEBRASKA

CITY           SKY/WX    TMP DP  RH WIND       PRES   REMARKS
GRAND ISLAND   CLOUDY    62  55  77 W9        29.84R
HASTINGS       CLOUDY    61  54  77 W10       29.85R
KEARNEY *      CLOUDY    63  55  77 W13       29.87R
YORK           CLOUDY    63  55  77 NW13      29.82S
$$

NEZ011>018-030>034-042>045-281600-
NORTHEAST NEBRASKA

CITY           SKY/WX    TMP DP  RH WIND       PRES   REMARKS
NORFOLK        RAIN      58  56  93 W13       29.74S FOG
ALBION         DRIZZLE   58  56  92 W15G21    29.80R
BLAIR          CLOUDY    64  59  84 SW9       29.78S
FREMONT        CLOUDY    64  58  81 SW9       29.78S
TEKAMAH        PTSUNNY   66  58  75 S13       29.76S
$$

NEZ050>053-065>068-078-088>093-281600-
SOUTHEAST NEBRASKA

CITY           SKY/WX    TMP DP  RH WIND       PRES   REMARKS
LINCOLN        CLOUDY    65  57  75 W8        29.81R
OMAHA EPPLEY   CLOUDY    65  60  84 S9        29.78R
FALLS CITY     CLOUDY    64  60  87 W10       29.80R
PLATTSMOUTH    CLOUDY    64  61  91 S6        29.80R
$$

NEZ044-045-051>053-067-281600-
OMAHA AREA

CITY           SKY/WX    TMP DP  RH WIND       PRES   REMARKS
OMAHA EPPLEY   CLOUDY    65  60  84 S9        29.78R
BLAIR          CLOUDY    64  59  84 SW9       29.78S
FREMONT        CLOUDY    64  58  81 SW9       29.78S
OFFUTT AFB     CLOUDY    63  59  86 S7        29.78R
PLATTSMOUTH    CLOUDY    64  61  91 S6        29.80R
$$



USA.gov is the U.S. government's official web portal to all federal, state and local government web resources and services.